Location: Steilacoom
(47.1700°N, 122.5700°W)
Time: 18:27:08
(UTC-07:00)

Envisat - Visible Passes

Search period start: 14 August 2018 00:00
Search period end: 24 August 2018 00:00
Orbit: 764 x 766 km, 98.2° (Epoch: 14 August)

Date Brightness Start Highest point End Pass type
(mag) Time Alt. Az. Time Alt. Az. Time Alt. Az.
14 Aug 4.9 21:03:17 10° SSW 21:07:47 31° W 21:12:18 10° NNW visible
16 Aug 5.6 21:30:01 10° SW 21:33:36 19° W 21:37:12 10° NW visible
17 Aug 4.5 20:51:49 10° SSW 20:56:32 39° W 21:01:18 10° NNW visible
18 Aug 6.0 21:58:09 10° W 21:59:31 11° W 22:00:54 10° WNW visible
19 Aug 5.3 21:18:16 10° SW 21:22:18 24° W 21:26:22 10° NW visible
20 Aug 4.1 20:40:25 10° S 20:45:18 48° W 20:50:15 10° NNW visible
21 Aug 5.8 21:45:34 10° WSW 21:48:11 14° W 21:50:49 10° NW visible
22 Aug 5.0 21:06:40 10° SSW 21:11:02 29° W 21:15:27 10° NW visible
23 Aug 3.7 20:29:05 10° S 20:34:06 60° W 20:39:09 10° NNW visible
